Back to catalog

STARLINK-33956

AliveCommunicationsVLEO
NORAD 63927·PAYLOAD·🇺🇸 United States

Launched May 13, 2025 from Vandenberg Space Force Base

Loading…

Next Passes (next 24 hours)

TLE

FreshSource: CelesTrak SupGP

Epoch: Sep 14, 2026, 14:44 UTC

1 63927C 25098B   26257.61437500  .00085934  00000+0  29924-2 0  2572
2 63927  69.9996 156.7622 0003087 273.2922 147.6519 15.29503056    11

Track STARLINK-33956 in real time with AllMySat

Download on the App Store